690  
ASUS41 KOKX 170108  
RWROKX  
 
REGIONAL WEATHER ROUNDUP  
NATIONAL WEATHER SERVICE NEW YORK NY  
900 PM EDT WED AUG 16 2017  
 
NOTE: "FAIR" INDICATES FEW OR NO CLOUDS BELOW 12,000 FEET WITH NO  
SIGNIFICANT WEATHER AND/OR S TO VISIBILITY
.  
 
NYZ071-072-176-178-NJZ106-104-170200-  
NEW YORK CITY METRO AREA  
 
CITY SKY/WX TMP DP RH WIND PRES REMARKS
 
CENTRAL PARK CLEAR 79 60 52 CALM 30.02R  
BRONX BOT GARD N/A 73 59 60 E2 30.00S  
LAGUARDIA APRT PTCLDY 81 63 54 CALM 29.98R  
KENNEDY INTL PTCLDY 76 72 87 S8 29.99R  
BREEZY POINT N/A 79 N/A N/A NW6 N/A  
NEWARK/LIBERTY PTCLDY 80 58 46 W6 29.98R  
TETERBORO CLEAR 81 60 48 NW5 29.97R  

 
 
NYZ177-179-078>081-170200-  
LONG ISLAND NEW YORK  
 
CITY SKY/WX TMP DP RH WIND PRES REMARKS
 
JONES BEACH N/A 73 N/A N/A S3 N/A  
MATINECOCK PT N/A 79 N/A N/A SE3 N/A  
FARMINGDALE CLEAR 76 69 79 SW8 29.99R  
MACARTHUR/ISP PTCLDY 75 65 70 CALM 29.99R  
SHIRLEY CLEAR 71 65 81 CALM 29.99R  
MT SINAI HARB N/A N/A N/A N/A MISG N/A  
WESTHAMPTON CLEAR 69 61 75 CALM 30.00R  
EAST HAMPTON FAIR 69 66 92 CALM 29.98R  
MONTAUK N/A 76 68 76 W3 29.99R  

 
 
NYZ052-065-067-170200-  
HUDSON VALLEY  
 
CITY SKY/WX TMP DP RH WIND PRES REMARKS
 
WHITE PLAINS PTCLDY 73 65 75 NW3 30.00R  
LARCHMONT HARB N/A 77 N/A N/A MISG N/A  
CROTON ON HUDS N/A 75 N/A N/A NE2 N/A  
NEWBURGH PTCLDY 75 66 73 CALM 30.02R  
MONTGOMERY PTCLDY 70 66 87 CALM 30.01R  
POUGHKEEPSIE MOCLDY 72 63 73 CALM 29.99R  
ALBANY PTCLDY 70 56 61 N5 30.02R  

 
 
NJZ001-105-106-008-010-013-015-019>022-104-170200-  
NEW JERSEY  
 
CITY SKY/WX TMP DP RH WIND PRES REMARKS
 
NEWARK/LIBERTY PTCLDY 80 58 46 W6 29.98R  
TETERBORO CLEAR 81 60 48 NW5 29.97R  
CALDWELL CLEAR 75 64 68 CALM 30.00R  
SOMERVILLE CLEAR 70 68 93 CALM 29.98R  
LINDEN FAIR 79 60 52 NW3 29.99R  
PERTH AMBOY N/A 79 N/A N/A NW3 N/A  
SUSSEX CLEAR 69 66 90 SW5 30.01R  
ANDOVER N/A 67 65 93 CALM 30.02R  
TRENTON PTCLDY 79 67 66 CALM 29.99R  
MILLVILLE CLEAR 75 72 90 CALM 29.99R  
ATLANTIC CITY CLEAR 76 72 87 VRB3 29.99R  
WRIGHTSTOWN PTCLDY 75 71 86 S3 29.97R  
TOMS RIVER PTCLDY 72 69 90 CALM 30.01R  
BELMAR CLEAR 74 70 87 S5 30.01R  

 
 
PAZ047>061-062-071-170200-  
EASTERN PENNSYLVANIA  
 
CITY SKY/WX TMP DP RH WIND PRES REMARKS
 
PHILADELPHIA PTCLDY 83 63 50 N7 30.00R  
ALLENTOWN CLEAR 75 65 70 CALM 30.01R  
SCRANTON CLEAR 68 61 78 E5 30.04S  

 
 
CTZ002-004>006-009-010-012-RIZ004-006-007-MAZ004-011-015-170200-  
SOUTHERN NEW ENGLAND  
IN CT  
 
CITY SKY/WX TMP DP RH WIND PRES REMARKS
 
BRADLEY INTL PTCLDY 72 61 68 NW6 29.99R  
HARTFORD CLEAR 78 60 53 NW5 29.98R  
DANBURY PTCLDY 70 65 84 SW3 30.02R  
WTRBURY/OXFORD CLEAR 68 61 78 N3 30.03R  
NORWALK HARBOR N/A 75 N/A N/A NW1 N/A  
BRIDGEPORT CLEAR 78 60 53 N5 29.98R  
MERIDEN CLEAR 68 62 81 CALM 29.99R  
NEW HAVEN CLEAR 76 62 62 CALM 29.99R  
CHESTER NOT AVBL  
GROTON CLEAR 72 66 81 CALM 29.97R  
WILIMANTIC MOCLDY 71 64 78 CALM 29.99R  
 
IN RI  
 
CITY SKY/WX TMP DP RH WIND PRES REMARKS
 
PROVIDENCE PTCLDY 77 60 55 NW3 29.97R  
BLOCK ISLAND PTCLDY 73 67 81 W8 29.98R  
WESTERLY PTCLDY 72 67 84 CALM 29.98R  
IN MA  
 
CITY SKY/WX TMP DP RH WIND PRES REMARKS
 
BOSTON PTCLDY 75 54 47 N7 29.97R  
WORCESTER CLEAR 70 54 56 N6 30.01R  
WESTFIELD CLEAR 72 60 66 W5 29.99R  
PROVINCETOWN CLEAR 70 58 65 NW7 29.98R  
NANTUCKET CLEAR 67 65 93 SW7 29.98R  

 
 
ANZ330-335-338-340-345-350-353-355-170200-  
COASTAL MARINE OBSERVATIONS  
 
 
STATION/POSITION TIME SKY/WX TEMP WIND PRES VSBY WAVE
 
AIR SEA DIR/SP/G HT/PER  
(UTC) (F) (DEG/KT/KT) (MB) (MI) (FT/S)  
NY HARB ENTRANCE 2350 77 77 220/ 12/ 14 1014.4 3/ 9  
GREAT SOUTH BAY 0030 78 79 220/ 6/ 8 N/A  
23 SSW MONTAUK P 2350 74 72 1015.1 4/11  
15 E BARNEGAT LI 0030 76 N/A 3/ 8  
HUDSON CANYON 2350 75 75 220/ 6/ 8 1014.8 4/11  
KINGS POINT 0024 78 74 140/ 2/ 3 1015.0  
EXECUTION ROCKS NOT AVBL  
WESTERN LI SOUND NOT AVBL  
CENTRAL LI SOUND NOT AVBL  
EASTERN LI SOUND NOT AVBL  
ROBBINS REEF 0030 310/ 6/ 7 1015.7  

 
 
>>>>>>>>>>>>>>>>>>>>>>>>>>>> KEY <<<<<<<<<<<<<<<<<<<<<<<<<<<  
> <  
> SKY/WX - SKY CONDITION/PRESENT WEATHER <  
> TMP - TEMPERATURE IN FAHRENHEIT <  
> DP - DEW POINT IN FAHRENHEIT <  
> RH - RELATIVE HUMIDITY IN PERCENT <  
> WIND - DIRECTION (FROM) AND SPEED IN MPH <  
> PRES - MEAN SEA LEVEL PRESSURE (INCHES OF HG) <  
> WCI - WIND CHILL INDEX <  
> VSB - VISIBILITY IN MILES <  
> HX - HEAT INDEX <  
> TC - TEMPERATURE IN CELSIUS <  
> VRB - VARIABLE WIND DIRECTION <  
> <  
>>>>>>>>>>>>>>>>>>>>>>>>>>>> KEY <<<<<<<<<<<<<<<<<<<<<<<<<<<  
 
 
CLICK HERE TO GO TO PREVIOUS BULLETINS.

The Nexlab NY Page
The Nexlab NJ Page
The Nexlab CT Page Main Text Page